Historique des mesures à Cassis (13260), France
Quotidien Résumé Fevrier 10, 2018 Unités:  Métrique    US   Métrique/US
« Précédent (Jour)
Suivant (Jour) »
Quotidien Hebdomadaire Mensuel Annuel Période au choix
  Maximum: Minimum: Moyenne:
Température: TemperatureC °C 4.9 °C 6.7 °C
Point de rosée: DewpointC °C -2.3 °C -0.7 °C
Humidité: Humidity % 45 % 56 %
Vitesse du vent: 0 km/h 0 km/h 16.9 km/h
Rafales: 0 km/h - -
Vent:- - SW
Pression: PressurehPa hPa 1007.3 hPa -
Précipitations: 0.0 mm    
Historical Graphs
 
 
Mesures pour : Fevrier 10, 2018
Heure Temperature Point de rosée Pression Vent Vitesse du vent Rafales Humidité Pluie (par heure) Conditions
TemperatureC °C DewpointC °C PressurehPa hPa Calm     Humidity % HourlyPrecipMM mm SoftwareType W/m2
00:12 6.1 °C -0.4 °C 1009.4 hPa West 4.2 km/h 10.3 km/h 63 % 0.0 mm open2300-1.11 W/m2
01:12 5.8 °C -0.5 °C 1008.7 hPa WNW 13.2 km/h 20.3 km/h 64 % 0.0 mm open2300-1.11 W/m2
02:12 5.4 °C -0.4 °C 1008.0 hPa WNW 27.2 km/h 27.2 km/h 66 % 0.0 mm open2300-1.11 W/m2
03:12 5.3 °C -0.3 °C 1007.7 hPa West 7.6 km/h 27.2 km/h 67 % 0.0 mm open2300-1.11 W/m2
04:12 5.4 °C 0.0 °C 1007.3 hPa NNW 33.2 km/h 33.2 km/h 68 % 0.0 mm open2300-1.11 W/m2
05:12 5.3 °C 0.1 °C 1007.3 hPa NNW 11.6 km/h 14.5 km/h 69 % 0.0 mm open2300-1.11 W/m2
06:12 5.2 °C 0.0 °C 1007.3 hPa Calm   4.7 km/h 69 % 0.0 mm open2300-1.11 W/m2
07:12 4.9 °C -0.3 °C 1007.7 hPa NNE 6.9 km/h 6.9 km/h 69 % 0.0 mm open2300-1.11 W/m2
08:12 5.1 °C -0.6 °C 1007.3 hPa NNW 8 km/h 21.6 km/h 67 % 0.0 mm open2300-1.11 W/m2
09:12 6.1 °C -0.7 °C 1008.0 hPa North 12.7 km/h 12.7 km/h 62 % 0.0 mm open2300-1.11 W/m2
10:12 6.9 °C -1.1 °C 1008.7 hPa North 6.4 km/h 15.6 km/h 57 % 0.0 mm open2300-1.11 W/m2
11:12 8.4 °C -0.9 °C 1009.4 hPa West 23.8 km/h 23.8 km/h 52 % 0.0 mm open2300-1.11 W/m2
12:12 9.9 °C -0.3 °C 1009.0 hPa WNW 26.7 km/h 26.7 km/h 49 % 0.0 mm open2300-1.11 W/m2
13:12 10.9 °C 0.3 °C 1009.0 hPa Calm   9.8 km/h 48 % 0.0 mm open2300-1.11 W/m2
14:12 11.6 °C 0.0 °C 1008.4 hPa WNW 30.7 km/h 30.7 km/h 45 % 0.0 mm open2300-1.11 W/m2
15:12 11.2 °C 0.3 °C 1008.7 hPa WNW 33.6 km/h 40.7 km/h 47 % 0.0 mm open2300-1.11 W/m2
16:12 10.6 °C -0.3 °C 1008.7 hPa WNW 23 km/h 37 km/h 47 % 0.0 mm open2300-1.11 W/m2
17:12 9.2 °C -0.7 °C 1008.7 hPa NNE 13.2 km/h 50.5 km/h 50 % 0.0 mm open2300-1.11 W/m2
18:12 7.4 °C -1.3 °C 1009.4 hPa NNW 14.5 km/h 14.5 km/h 54 % 0.0 mm open2300-1.11 W/m2
19:12 6.1 °C -1.8 °C 1009.7 hPa WNW 38.8 km/h 38.8 km/h 57 % 0.0 mm open2300-1.11 W/m2
20:12 5.6 °C -2.3 °C 1009.4 hPa WNW 23 km/h 27.7 km/h 57 % 0.0 mm open2300-1.11 W/m2
21:12 5.1 °C -2.0 °C 1009.7 hPa WNW 27.2 km/h 51 km/h 60 % 0.0 mm open2300-1.11 W/m2
22:12 4.9 °C -2.0 °C 1010.4 hPa West 29.5 km/h 31.4 km/h 61 % 0.0 mm open2300-1.11 W/m2
23:12 5.1 °C -1.8 °C 1010.0 hPa ENE 8.9 km/h 12.2 km/h 61 % 0.0 mm open2300-1.11 W/m2
Observations météo à CASSIS
WU-History script by Weather Underground - 1 mb